Waarnemingen

Advertentie
Mijn weer
Cap-de-la Heve, Frankrijk (7028): temperatuur & dauwpunt: 27.11.2020 23:00:00 - 03.12.2020 23:00:00 (CET)Cap-de-la Heve, Frankrijk (7028): temperatuur 5cm: 27.11.2020 23:00:00 - 03.12.2020 23:00:00 (CET)Cap-de-la Heve, Frankrijk (7028): windsnelheid & windstoten: 27.11.2020 23:00:00 - 03.12.2020 23:00:00 (CET)Cap-de-la Heve, Frankrijk (7028): windrichting: 27.11.2020 23:00:00 - 03.12.2020 23:00:00 (CET)Cap-de-la Heve, Frankrijk (7028): luchtdruk: 27.11.2020 23:00:00 - 03.12.2020 23:00:00 (CET)Cap-de-la Heve, Frankrijk (7028): zicht: 27.11.2020 23:00:00 - 03.12.2020 23:00:00 (CET)Cap-de-la Heve, Frankrijk (7028): neerslag: 27.11.2020 23:00:00 - 03.12.2020 23:00:00 (CET)
Datum & Tijd tt [°C] td [°C] tt 5cm [°C] ff [km/u] ff [kn] fx [km/u] fx [kn] dd ppp [hPa] vv [km] rr [mm]
03.12.2020 23:00:00 7,7 6,8 6,7 34 19 59 32 Z 973,8 - 0,8
03.12.2020 22:00:00 7,1 6,4 6,7 17 9 36 19 ZO 975,5 8 0,8
03.12.2020 21:00:00 7,2 6,6 6,8 18 10 38 20 ZZO 977,3 - 2,2
03.12.2020 20:00:00 7,7 6,5 7,1 29 16 54 29 Z 979,3 - 0,0
03.12.2020 19:00:00 8,0 6,3 7,9 35 19 53 28 Z 980,8 25 0,0
03.12.2020 18:00:00 8,0 6,3 7,7 39 21 61 33 Z 982,5 - 0,0
03.12.2020 17:00:00 7,7 6,5 7,1 40 22 70 38 Z 983,8 - 0,0
03.12.2020 16:00:00 7,4 6,2 6,3 50 27 77 42 Z 985,0 12 0,2
03.12.2020 15:00:00 6,9 6,0 6,2 44 24 74 40 Z 987,2 - 0,4
03.12.2020 14:00:00 6,7 5,6 5,9 51 28 75 41 Z 989,5 - 0,2
03.12.2020 13:00:00 6,5 5,6 5,8 49 26 74 40 Z 992,2 12 0,6
03.12.2020 12:00:00 6,4 5,2 5,8 46 25 66 36 Z 994,7 - 0,4
03.12.2020 11:00:00 6,3 5,1 5,8 38 20 67 36 ZZW 996,8 - 0,8
03.12.2020 10:00:00 6,7 5,3 6,0 30 16 64 35 ZZW 998,5 12 0,4
03.12.2020 09:00:00 6,8 5,4 6,0 21 11 57 31 ZZW 1000,1 - 0,2
03.12.2020 08:00:00 7,0 5,1 6,6 16 9 56 30 Z 1001,3 - 0,0
03.12.2020 07:00:00 7,5 4,8 7,5 16 9 43 23 Z 1003,0 - 0,0
03.12.2020 06:00:00 8,1 4,1 7,9 18 10 48 26 ZZW 1004,3 - 0,0
03.12.2020 05:00:00 8,3 4,1 7,8 18 10 40 21 ZW 1005,7 - 0,0
03.12.2020 04:00:00 8,5 2,7 7,0 9 5 28 15 WNW 1007,3 20 0,0
03.12.2020 03:00:00 8,5 3,1 7,4 19 10 36 19 NW 1008,5 - 0,0
03.12.2020 02:00:00 8,6 4,0 7,3 22 12 40 22 WNW 1009,3 - 0,0
03.12.2020 01:00:00 8,9 5,5 7,6 21 11 42 23 NW 1010,2 - 0,2
03.12.2020 00:00:00 8,6 8,0 7,9 19 10 41 22 WNW 1011,1 - 0,4
02.12.2020 23:00:00 8,0 7,9 7,3 17 9 44 24 ZZW 1011,8 - 0,2
02.12.2020 22:00:00 7,2 7,1 6,6 13 7 35 19 ZW 1012,7 20 0,0
02.12.2020 21:00:00 6,7 6,4 6,3 9 5 31 17 ZZW 1013,4 - 0,0
02.12.2020 20:00:00 6,7 5,8 6,2 14 7 32 18 ZW 1014,6 - 0,0
02.12.2020 19:00:00 7,7 4,5 7,3 10 5 29 16 Z 1014,7 20 0,0
02.12.2020 18:00:00 8,0 3,6 7,7 9 5 32 17 ZW 1015,2 - 0,0
02.12.2020 17:00:00 8,4 4,4 8,1 21 11 33 18 W 1016,1 - 0,0
02.12.2020 16:00:00 8,4 3,4 8,2 11 6 28 15 W 1016,4 20 0,0
02.12.2020 15:00:00 8,3 2,7 8,1 11 6 21 11 W 1017,4 - 0,0
02.12.2020 14:00:00 8,1 2,5 8,0 11 6 24 13 NW 1018,3 - 0,0
02.12.2020 13:00:00 8,1 3,0 8,4 9 5 19 10 WNW 1018,9 - 0,0
02.12.2020 12:00:00 8,4 2,8 9,7 8 4 22 12 NW 1019,7 - 0,0
02.12.2020 11:00:00 8,6 2,8 7,5 10 6 22 12 NW 1020,3 - 0,0
02.12.2020 10:00:00 7,3 2,6 5,4 10 5 16 9 N 1020,9 - 0,0
02.12.2020 09:00:00 6,3 2,2 5,4 9 5 16 9 N 1021,1 - 0,0
02.12.2020 08:00:00 6,4 2,3 5,4 11 6 20 11 NNO 1021,0 - 0,0
02.12.2020 07:00:00 7,1 1,8 5,8 11 6 19 10 N 1021,5 - 0,0
02.12.2020 06:00:00 7,0 1,9 6,5 - - 16 8 - 1021,9 - 0,0
02.12.2020 05:00:00 7,3 2,6 7,0 9 5 18 10 NNO 1022,5 - 0,0
02.12.2020 04:00:00 7,5 2,4 7,1 10 5 27 15 NNO 1023,0 20 0,0
02.12.2020 03:00:00 7,9 2,4 7,7 13 7 29 16 NNO 1023,2 - 0,0
02.12.2020 02:00:00 8,1 3,0 7,7 11 6 29 16 N 1023,4 - 0,0
02.12.2020 01:00:00 7,9 3,2 7,6 13 7 34 18 N 1023,7 - 0,0
02.12.2020 00:00:00 8,0 3,1 7,4 16 9 39 21 NNO 1023,8 - 0,0
01.12.2020 23:00:00 7,8 2,7 7,3 15 8 33 18 NNO 1024,2 - 0,0
01.12.2020 22:00:00 8,0 2,4 7,5 16 9 37 20 NNO 1024,4 20 0,0
01.12.2020 21:00:00 8,4 2,8 8,1 16 9 37 20 NNO 1024,4 - 0,0
01.12.2020 20:00:00 8,7 2,9 7,9 18 10 36 19 N 1024,3 - 0,0
01.12.2020 19:00:00 8,3 3,1 7,7 16 9 37 20 NNO 1024,1 - 0,0
01.12.2020 18:00:00 8,5 3,7 7,9 16 9 34 18 N 1024,4 - 0,0
01.12.2020 17:00:00 8,4 4,0 8,0 18 10 35 19 N 1024,5 - 0,0
01.12.2020 16:00:00 8,4 4,0 8,4 16 8 37 20 N 1024,6 20 0,0
01.12.2020 15:00:00 8,6 4,4 8,6 18 10 38 21 N 1024,6 - 0,0
01.12.2020 14:00:00 8,7 4,1 9,1 19 10 37 20 N 1024,8 - 0,0
01.12.2020 13:00:00 8,7 4,1 9,4 18 10 39 21 N 1024,9 - 0,0
01.12.2020 12:00:00 8,9 4,5 8,8 19 10 43 23 N 1024,9 - 0,0
01.12.2020 11:00:00 8,6 4,0 8,6 21 11 52 28 N 1024,9 - 0,2
01.12.2020 10:00:00 8,4 4,4 7,9 21 11 47 26 N 1024,6 20 0,0
01.12.2020 09:00:00 8,0 4,6 7,6 21 11 44 24 N 1024,3 - 0,0
01.12.2020 08:00:00 8,2 4,6 7,7 20 11 42 23 N 1023,8 - 0,0
01.12.2020 07:00:00 8,1 3,7 7,5 24 13 49 26 N 1023,5 - 0,0
01.12.2020 06:00:00 8,1 2,7 7,4 22 12 47 25 N 1023,2 - 0,0
01.12.2020 05:00:00 8,2 3,2 7,5 19 10 49 26 N 1023,2 - 0,0
01.12.2020 04:00:00 8,6 4,0 7,9 22 12 51 28 N 1022,8 20 0,0
01.12.2020 03:00:00 9,0 4,4 8,4 23 13 56 30 N 1022,4 - 0,0
01.12.2020 02:00:00 10,8 7,8 10,3 28 15 60 33 N 1022,0 - 0,0
01.12.2020 01:00:00 11,3 9,2 10,6 30 16 55 30 NNW 1021,9 14 0,0
01.12.2020 00:00:00 11,4 9,5 10,4 23 12 59 32 NNW 1022,2 - 0,0
30.11.2020 23:00:00 11,2 10,1 10,7 26 14 56 31 WNW 1022,0 - 0,0
30.11.2020 22:00:00 10,8 9,7 10,4 21 11 71 39 WNW 1022,4 14 0,0
30.11.2020 21:00:00 10,7 10,5 10,2 18 10 56 31 WNW 1023,0 - 0,0
30.11.2020 20:00:00 10,1 10,1 9,9 43 23 64 35 W 1023,5 - 0,0
30.11.2020 19:00:00 9,7 9,7 8,5 39 21 55 30 W 1023,9 0,5 0,0
30.11.2020 18:00:00 8,4 8,4 7,9 16 9 38 20 ZW 1024,6 - 0,0
30.11.2020 17:00:00 7,9 7,9 7,0 10 6 32 17 WZW 1025,0 - 0,0
30.11.2020 16:00:00 6,8 6,8 6,2 9 5 30 16 Z 1025,8 - 0,0
30.11.2020 15:00:00 6,2 6,2 6,5 11 6 27 15 ZW 1026,2 - 0,0
30.11.2020 14:00:00 6,3 6,3 5,9 11 6 28 15 ZZW 1026,7 - 0,0
30.11.2020 13:00:00 5,5 5,5 5,2 17 9 25 14 Z 1027,6 - 0,0
30.11.2020 12:00:00 4,8 4,8 4,8 10 5 22 12 ZZW 1028,7 - 0,0
30.11.2020 11:00:00 4,5 4,4 4,7 10 5 19 10 ZZW 1029,0 - 0,0
30.11.2020 10:00:00 4,5 4,4 4,3 11 6 19 11 Z 1028,5 0,5 0,0
30.11.2020 09:00:00 4,1 3,8 4,1 9 5 18 10 Z 1028,7 - 0,0
30.11.2020 08:00:00 3,9 3,6 3,9 9 5 17 9 ZZO 1028,3 - 0,0
30.11.2020 07:00:00 3,9 3,5 3,0 9 5 16 9 ZZO 1028,1 0,5 0,0
30.11.2020 06:00:00 3,2 2,8 2,5 6 4 10 5 ZZO 1028,0 - 0,0
30.11.2020 05:00:00 2,7 2,4 2,3 7 4 13 7 ONO 1027,9 - 0,0
30.11.2020 04:00:00 2,7 2,4 2,7 6 4 10 5 ONO 1028,1 0,5 0,0
30.11.2020 03:00:00 2,9 2,6 3,0 5 3 9 5 ONO 1028,2 - 0,0
30.11.2020 02:00:00 3,0 2,9 3,0 0 0 19 11 N 1028,1 - 0,0
30.11.2020 01:00:00 3,1 3,1 3,1 7 4 13 7 ZO 1027,7 0,5 0,0
30.11.2020 00:00:00 3,0 3,0 3,0 3 2 12 7 NNO 1028,0 - 0,0
29.11.2020 23:00:00 2,8 2,7 2,9 8 4 14 8 NO 1027,6 - 0,0
29.11.2020 22:00:00 3,0 2,9 3,1 9 5 20 11 O 1027,2 - 0,0
29.11.2020 21:00:00 3,1 3,0 3,0 - - 21 12 - 1027,2 - 0,0
29.11.2020 20:00:00 3,2 3,1 2,9 8 5 16 9 NO 1026,8 - 0,0
29.11.2020 19:00:00 3,4 3,1 2,8 10 5 15 8 ONO 1026,2 0,5 0,0
29.11.2020 18:00:00 4,1 2,9 3,6 11 6 16 9 NNO 1025,9 - 0,0
29.11.2020 17:00:00 7,0 4,1 6,5 13 7 21 11 NO 1025,1 - 0,0
29.11.2020 16:00:00 9,1 4,9 10,9 8 4 16 9 NO 1024,7 - 0,0
29.11.2020 15:00:00 10,6 5,4 13,8 6 4 11 6 ONO 1024,1 - 0,0
29.11.2020 14:00:00 10,8 4,5 13,0 8 4 19 10 ONO 1024,0 - 0,0
29.11.2020 13:00:00 10,7 5,7 11,5 11 6 27 14 O 1023,8 - 0,0
29.11.2020 12:00:00 9,5 5,3 10,2 17 9 31 17 ONO 1023,9 - 0,0
29.11.2020 11:00:00 8,8 5,7 9,1 18 10 36 20 NO 1023,8 - 0,0
29.11.2020 10:00:00 8,3 3,9 6,7 21 11 36 20 NO 1023,2 - 0,0
29.11.2020 09:00:00 6,9 5,2 5,4 14 8 29 16 NO 1022,7 - 0,0
29.11.2020 08:00:00 6,6 3,4 5,8 11 6 16 9 NNO 1022,2 - 0,0
29.11.2020 07:00:00 7,3 2,8 6,1 9 5 19 10 NO 1021,9 - 0,0
29.11.2020 06:00:00 8,4 2,8 6,7 16 8 21 12 ONO 1021,4 - 0,0
29.11.2020 05:00:00 7,7 3,2 6,2 8 5 16 9 ONO 1021,2 - 0,0
29.11.2020 04:00:00 7,9 3,5 6,7 9 5 18 10 ONO 1021,1 - 0,0
29.11.2020 03:00:00 8,1 3,5 7,2 9 5 39 21 ONO 1021,1 - 0,0
29.11.2020 02:00:00 8,2 3,8 7,2 27 14 44 24 O 1019,9 - 0,0
29.11.2020 01:00:00 8,0 3,6 7,4 22 12 38 21 ONO 1020,0 15 0,0
29.11.2020 00:00:00 8,1 3,5 7,3 24 13 37 20 ONO 1019,6 - 0,0
28.11.2020 23:00:00 8,2 3,4 7,4 20 11 31 17 O 1019,5 - 0,0
28.11.2020 22:00:00 8,4 3,6 7,8 19 10 32 18 ONO 1019,4 15 0,0
28.11.2020 21:00:00 9,3 4,1 8,6 18 10 31 17 ONO 1018,7 - 0,0
28.11.2020 20:00:00 9,9 5,5 9,3 22 12 33 18 ONO 1018,2 - 0,0
28.11.2020 19:00:00 10,6 6,3 9,9 16 9 29 16 ONO 1017,6 - 0,0
28.11.2020 18:00:00 11,0 6,7 10,2 14 8 22 12 ONO 1017,0 - 0,0
28.11.2020 17:00:00 11,6 7,1 10,7 6 4 16 9 ONO 1016,7 - 0,0
28.11.2020 16:00:00 12,3 6,8 13,5 8 5 20 11 ONO 1016,5 - 0,0
28.11.2020 15:00:00 12,5 7,0 13,7 11 6 31 17 O 1016,2 - 0,0
28.11.2020 14:00:00 11,7 7,2 12,9 18 10 34 18 O 1015,9 - 0,0
28.11.2020 13:00:00 10,8 7,1 11,3 19 10 38 20 O 1015,9 12 0,0
28.11.2020 12:00:00 9,6 6,9 10,2 21 11 39 21 O 1015,9 - 0,0
28.11.2020 11:00:00 8,9 6,5 8,3 23 13 38 21 O 1015,7 - 0,0
28.11.2020 10:00:00 7,5 6,1 6,4 25 13 43 23 O 1015,5 12 0,0
28.11.2020 09:00:00 6,3 5,7 5,9 27 15 41 22 O 1015,3 - 0,0
28.11.2020 08:00:00 6,3 5,7 5,9 26 14 39 21 O 1015,1 - 0,0
28.11.2020 07:00:00 6,5 5,8 6,3 24 13 37 20 O 1014,4 - 0,0
28.11.2020 06:00:00 7,2 6,3 6,8 20 11 32 17 O 1014,3 - 0,0
28.11.2020 05:00:00 7,7 6,5 7,2 18 10 39 21 O 1014,1 - 0,0
28.11.2020 04:00:00 8,8 6,9 7,9 18 10 42 23 OZO 1014,2 - 0,0
28.11.2020 03:00:00 8,6 6,9 7,9 24 13 44 24 O 1013,9 - 0,0
28.11.2020 02:00:00 9,6 7,9 8,2 23 13 39 21 OZO 1014,3 - 0,0
28.11.2020 01:00:00 8,9 7,2 8,0 21 11 34 19 O 1014,4 - 0,0
28.11.2020 00:00:00 8,6 7,1 8,1 21 12 33 18 O 1014,3 - 0,0
27.11.2020 23:00:00 8,4 6,9 8,0 20 11 35 19 O 1014,6 - 0,0

tt = temperatuur
td = dauwpunt
tt 5cm = temperatuur 5cm
ff = windsnelheid
fx = windstoten
dd = windrichting
ppp = luchtdruk
vv = zicht
rr = neerslag

Weerstations in de omgeving